Regional Weather Roundup
Issued by NWS Upton, NY

Current Version | Previous Version | Text Only | Print | Product List | Glossary On
Versions: 1 2 3 4 5 6 7 8 9 10 11 12 13 14 15 16 17 18 19 20 21 22 23 24 25 26 27 28 29 30 31 32 33 34 35 36 37 38 39 40 41 42 43 44 45 46 47 48 49
000
ASUS41 KOKX 131304
RWROKX

REGIONAL WEATHER ROUNDUP
NATIONAL WEATHER SERVICE NEW YORK NY
800 AM EST SAT FEB 13 2016

NOTE: "FAIR" INDICATES FEW OR NO CLOUDS BELOW 12,000 FEET WITH NO
SIGNIFICANT WEATHER AND/OR OBSTRUCTIONS TO VISIBILITY.

NYZ071-072-176-178-NJZ106-104-131400-
NEW YORK CITY METRO AREA


CITY           SKY/WX    TMP DP  RH WIND       PRES   REMARKS
CENTRAL PARK   SUNNY     21   1  41 NW15G30   29.98R WCI   8
LAGUARDIA APRT MOSUNNY   23   6  48 NW23G37   29.97R WCI   7
KENNEDY INTL   MOSUNNY   23   2  40 NW29G41   29.97R WCI   6
NEWARK/LIBERTY MOSUNNY   22   2  42 NW22G30   29.99R WCI   6
BRNX BOT. GARD   N/A     23   3  42 NW13      29.97R WCI  11
TETERBORO      SUNNY     21   0  39 N17G33    29.98R WCI   7
$$

NYZ177-179-078>081-131400-
LONG ISLAND NEW YORK

CITY           SKY/WX    TMP DP  RH WIND       PRES   REMARKS
FARMINGDALE    SUNNY     23   8  52 NW12G24   29.93R WCI  12
ISLIP          MOSUNNY   22  12  65 NW13      29.91R WCI  10
SHIRLEY        SUNNY     22  12  65 NW17G25   29.92R WCI   8
RIVERHEAD        N/A     25  10  54 NW3       29.88R
WESTHAMPTON    CLOUDY    21  14  74 NW16      29.90R WCI   7
EAST HAMPTON   CLOUDY    22  12  66 NW12      29.87R WCI  10
MONTAUK POINT    N/A     23  13  65 NW15      29.88R WCI  10
$$

NYZ052-065-067-131400-
HUDSON VALLEY

CITY           SKY/WX    TMP DP  RH WIND       PRES   REMARKS
WHITE PLAINS   MOSUNNY   19   4  51 NW23G36   29.91R WCI   2
NEWBURGH       MOSUNNY   16   5  62 NW16G29   29.94  WCI   0
MONTGOMERY     MOSUNNY   18   3  52 NW10G23   29.94R WCI   6
POUGHKEEPSIE   PTSUNNY   22   1  40 N10       29.94R WCI  11
ALBANY         PTCLDY    13   0  56 W14G21    29.95R WCI  -2
$$

NJZ001-105-106-008-010-013-015-019>022-104-131400-
NEW JERSEY

CITY           SKY/WX    TMP DP  RH WIND       PRES   REMARKS
NEWARK/LIBERTY MOSUNNY   22   2  42 NW22G30   29.99R WCI   6
TETERBORO      SUNNY     21   0  39 N17G33    29.98R WCI   7
CALDWELL       SUNNY     20   0  41 NW17G24   29.98R WCI   5
MORRISTOWN     MOSUNNY   19   5  53 NW14G25   29.99R WCI   6
SOMERVILLE     PTSUNNY   19  12  74 N8        30.00R WCI   9
SUSSEX         MOSUNNY   17   3  54 NW10G17   29.96R WCI   5
ANDOVER          N/A     15   7  70 NW8       29.96R WCI   4
TRENTON        MOSUNNY   20  10  65 NW9       30.02R WCI   9
MILLVILLE      SUNNY     22   7  52 NW16G30   30.08R WCI   8
ATLANTIC CITY  SUNNY     22   9  57 NW23G30   30.04R WCI   6
WRIGHTSTOWN    LGT SNOW  21  15  78 NW17G23   30.01R FOG     WCI   7
TOMS RIVER     MOSUNNY   21   9  58 NW18G26   30.01R WCI   6
BELMAR         SUNNY     21   7  53 NW17G23   29.98R WCI   7
$$

PAZ047>061-062-071-131400-
EASTERN PENNSYLVANIA

CITY           SKY/WX    TMP DP  RH WIND       PRES   REMARKS
PHILADELPHIA   MOSUNNY   22   1  40 NW22G32   30.09R WCI   6
ALLENTOWN      CLEAR     18  -2  41 W16G24    30.04R WCI   3
SCRANTON       HVY SNOW  11   5  77 NW12G25   29.99R VSB 1/4 WCI  -3
$$

CTZ002-004>006-009-010-012-RIZ004-006-007-MAZ004-011-015-131400-
SOUTHERN NEW ENGLAND
 IN CT

CITY           SKY/WX    TMP DP  RH WIND       PRES   REMARKS
BRADLEY INTL   PTSUNNY   13   6  74 NW6       29.87R WCI   4
HARTFORD       CLOUDY    19   9  65 W7        29.90R WCI  10
DANBURY        LGT SNOW  18   9  68 NW10      29.91R WCI   6
WTRBRY/OXFORD  MOSUNNY   16   1  53 NW12      29.85R WCI   3
BRIDGEPORT     MOSUNNY   19  10  68 NW9       29.92R WCI   8
MERIDEN        MOSUNNY   18   9  68 NW5       29.90R WCI  11
NEW HAVEN      CLOUDY    19  11  70 NW8       29.91R WCI   9
CHESTER        FAIR      19  10  68 NW9       29.86R WCI   9
GROTON         MOSUNNY   19  14  81 NW10      29.88R WCI   7
WILLIMANTIC    MOSUNNY   11   7  84 CALM      29.86R

 IN RI

CITY           SKY/WX    TMP DP  RH WIND       PRES   REMARKS
PROVIDENCE     FLURRIES  18  11  74 NW10      29.84R WCI   6
BLOCK ISLAND   CLOUDY    21  14  73 NW13G21   29.83R WCI   9
WESTERLY       MOSUNNY   19  13  77 VRB3      29.87R

 IN MA

CITY           SKY/WX    TMP DP  RH WIND       PRES   REMARKS
BOSTON         PTSUNNY   20   8  60 NW8       29.81S WCI  10
WORCESTER      CLOUDY    12   5  73 W12       29.76R WCI  -2
WESTFIELD      MOSUNNY    7   2  80 NW3       29.86R
PROVINCETOWN   PTSUNNY   23  14  68 W16       29.78S WCI  10
NANTUCKET      CLOUDY    24  12  60 NW13      29.78S WCI  12
$$

ANZ330-335-338-340-345-350-353-355-131400-
COASTAL MARINE OBSERVATIONS


STATION/POSITION TIME  SKY/WX   TEMP    WIND        PRES    VSBY  WAVE
                                AIR SEA DIR/SP/G                  HT/PER
                 (UTC)          (F)     (DEG/KT/KT) (MB)    (MI)  (FT/S)
NY HARB ENTRANCE 1150            26 43  300/ 25/ 33 1012.7          4/ 4
4S FIRE IS       NOT AVBL
20S FIRE ISLAND  1150            27 41  310/ 23/ 29 1011.8          5/ 5
GREAT SOUTH BAY  NOT AVBL
23SW MTP         1150            26 44  300/ 19/ 23 1010.3          5/ 6
HUDSON CANYON    1150            30 48              1011.4          7/ 7
KINGS POINT      1200            23 36  350/ 22/ 26 1012.8
EXECUTION ROCKS  NOT AVBL
CENTRAL LI SOUND 1200            23     290/ 17/ 19   N/A           3/ 4
EASTERN LI SOUND 1200            23 41  300/ 14/ 19   N/A
ROBBINS REEF     1200            22     310/ 22/ 29 1013.0
$$


>>>>>>>>>>>>>>>>>>>>>>>>>>>> KEY <<<<<<<<<<<<<<<<<<<<<<<<<<<
>                                                          <
>     SKY/WX - SKY CONDITION/PRESENT WEATHER               <
>     TMP    - TEMPERATURE IN FAHRENHEIT                   <
>     DP     - DEWPOINT IN FAHRENHEIT                      <
>     RH     - RELATIVE HUMIDITY IN PERCENT                <
>     WIND   - DIRECTION AND SPEED IN MPH                  <
>     PRES   - MEAN SEA LEVEL PRESSURE IN INCHES OF HG     <
>     WCI    - WIND CHILL INDEX                            <
>     VSB    - VISIBILITY IN MILES                         <
>     HX     - HEAT INDEX                                  <
>     TC     - TEMPERATURE IN CELSIUS                      <
>     VRB    - VARIABLE WIND DIRECTION                     <
>                                                          <
>>>>>>>>>>>>>>>>>>>>>>>>>>>> KEY <<<<<<<<<<<<<<<<<<<<<<<<<<<





USA.gov is the U.S. government's official web portal to all federal, state and local government web resources and services.